Location: Aufkirchen
(47.9603°N, 11.3653°E)
Time: 10:32:46
(UTC+02:00)

Altair - Pass Details

Date: 31 July 2021
Orbit: 1501 x 1682 km, 47.2° (Epoch: 18 September)

Event Time Altitude Azimuth Distance (km) Brightness Sun altitude
Exits shadow 02:26:33 31° 173° (S) 2,462 8.1 -22.2°
Maximum altitude 02:29:25 37° 140° (SE) 2,222 8.0 -22.0°
Drops below altitude 10° 02:37:32 10° 78° (ENE) 3,666 9.9 -21.6°
Sets 02:40:49 0° 70° (ENE) 4,641 10.6 -21.4°
